Location: Cerro Alto Campground
(35.4250°N, 120.7383°W)
Time: 06:55:18
(UTC-07:00)

Daily predictions for brighter satellites

Satellite Brightness Start Highest point End
(mag) Time Altitude Azimuth Time Altitude Azimuth Time Altitude Azimuth
CZ-2D R/B 3.7 20:45:49 10° S 20:49:36 64° W 20:53:25 10° NNW
Cosmos 407 Rocket 3.6 20:45:05 10° SSW 20:50:12 81° WNW 20:55:21 10° NNE
USA 186 1.0 20:49:42 10° S 20:52:09 83° WSW 20:54:29 10° NNW
Cosmos 1733 3.9 20:48:24 10° NNW 20:52:14 58° W 20:56:02 10° S
YAOGAN 6 4.0 20:49:30 10° SE 20:52:25 23° ENE 20:55:20 10° NNE
Cosmos 2237 Rocket 2.6 20:48:15 10° N 20:53:40 47° ENE 20:59:04 10° SE
SL-8 R/B 4.0 20:56:38 10° NW 21:01:22 60° NNE 21:06:05 10° ESE
Cosmos 1954 Rocket 4.0 20:58:01 10° S 21:03:11 70° ESE 21:08:21 10° NNE
Meteor 1-24 Rocket 3.9 20:57:19 10° S 21:03:12 64° E 21:08:57 10° NNE
Cosmos 2227 Rocket 2.4 20:59:37 10° SSW 21:05:16 81° WNW 21:10:58 10° NNE
Cosmos 1674 4.5 21:04:38 11° ESE 21:06:41 15° E 21:08:54 10° NE
Meteor 1-16 Rocket 4.3 21:01:39 10° N 21:07:31 85° E 21:13:26 10° S
Cosmos 2221 4.0 21:05:56 10° NNE 21:09:21 22° ENE 21:12:14 12° ESE
COSMOS 2428 4.1 21:04:15 10° NW 21:09:28 37° WSW 21:14:38 10° S
Cosmos 614 Rocket 4.0 21:10:27 10° S 21:15:34 60° ESE 21:20:42 10° NNE
H-2A R/B 4.0 21:13:11 10° E 21:15:59 15° ENE 21:18:49 10° NNE
SL-16 R/B 3.3 21:11:20 10° N 21:16:19 30° ENE 21:20:31 13° ESE
Resurs 01 Rocket 3.4 21:15:31 10° SSW 21:19:22 30° W 21:23:14 10° NW
SPOT 5 4.4 21:19:00 12° ESE 21:22:00 21° ENE 21:25:41 10° NNE
In-Cosmos 22 4.2 21:16:25 10° S 21:22:00 67° E 21:27:43 10° NNE
ARGOS 4.3 21:20:37 13° ESE 21:24:22 28° ENE 21:28:52 10° NNE
Lacrosse 5 4.3 21:23:07 10° N 21:24:44 11° NNE 21:26:20 10° NE
ERS-1 Rocket 3.5 21:21:41 14° SE 21:25:44 45° ENE 21:30:31 10° N
CZ-4B DEB 2.5 21:24:47 14° SSE 21:27:13 84° E 21:30:12 10° N
SJ-11-01 4.4 21:22:39 10° S 21:27:22 77° WSW 21:32:09 10° NNW
Meteor 2-1 Rocket 4.3 21:21:57 10° N 21:27:45 65° E 21:32:55 12° SSE
Spot 1 3.9 21:23:48 10° SSE 21:27:52 86° WSW 21:32:01 10° NNW
Cosmos 1741 Rocket 4.1 21:25:37 10° S 21:30:47 55° ESE 21:35:58 10° NNE
NOSS 0 Rocket 4.4 21:25:18 10° NNW 21:31:25 61° WSW 21:37:31 10° S
Cosmos 1184 Rocket 2.9 21:29:29 10° S 21:32:48 81° W 21:36:11 10° N
USA 234 3.2 21:26:25 10° NE 21:32:57 72° SE 21:39:28 10° SW
SAR-Lupe-4 3.6 21:32:11 14° S 21:35:14 81° WSW 21:38:50 10° NNW
Cosmos 2333 Rocket 3.0 21:29:55 10° NNW 21:35:20 48° WSW 21:40:43 10° S
Cosmos 2219 Rocket 3.5 21:31:34 10° NW 21:36:45 37° WSW 21:41:52 10° S
SEDSat Delta rocket 4.0 21:37:09 10° WSW 21:40:55 29° SSW 21:42:37 21° SSE
Cosmos 2100 Rocket 4.3 21:38:01 10° N 21:44:07 49° E 21:48:19 20° SSE
Cosmos 1939 Rocket 4.0 21:40:58 10° S 21:44:41 40° W 21:48:31 10° NNW
NOAA 11 4.2 21:42:39 19° SSE 21:46:34 65° ENE 21:51:57 10° N
Cosmos 1459 Rocket 4.3 21:40:40 10° N 21:46:44 48° E 21:50:34 22° SE
CZ-3B R/B 3.3 21:44:49 10° SW 21:47:21 84° SE 21:54:44 10° NE
Aureole 2 Rocket 4.1 21:44:44 10° NW 21:48:26 34° WSW 21:51:44 11° SSW
Milstar 3 Cent rocket 3.8 21:41:39 10° W 21:48:45 53° S 22:00:08 17° ESE
Meteor 1-21 Rocket 4.3 21:47:04 14° S 21:51:58 59° E 21:57:30 10° NNE
Cosmos 2084 3.2 21:54:35 10° SSW 21:58:41 86° WNW 22:02:34 10° NNE
Cosmos 2173 Rocket 4.1 21:52:44 10° N 21:58:49 59° E 22:02:31 25° SSE
NOSS 3-4 (A) 3.9 21:51:52 10° NNW 21:59:02 82° WSW 22:04:10 23° SSE
NOSS 3-4 (C) 3.9 21:51:58 10° NNW 21:59:09 83° WSW 22:04:15 23° SSE
Cosmos 1340 Rocket 4.0 21:56:08 10° SSW 21:59:56 42° WNW 22:03:48 10° N
Cosmos 1242 Rocket 2.8 21:59:46 10° N 22:03:26 53° E 22:04:19 41° SE
Cosmos 2208 Rocket 4.2 21:59:42 10° N 22:04:58 59° ENE 22:07:26 31° SE
Cosmos 2297 Rocket 4.1 22:01:16 10° WSW 22:06:13 31° WNW 22:11:13 10° N
SPOT 1/Viking Rocket 3.9 22:08:16 31° SE 22:10:19 48° ENE 22:15:15 10° N
Terra 3.3 22:10:52 20° E 22:11:59 22° ENE 22:15:35 10° NNE
Nimbus 7 Rocket 4.4 22:08:39 10° NNE 22:14:38 65° ESE 22:18:23 24° S
Cosmos 1300 4.1 22:11:41 10° NNE 22:14:45 24° ENE 22:14:45 24° ENE
Cosmos 1802 Rocket 3.9 22:08:48 10° N 22:14:55 69° E 22:18:01 30° SSE
Tiangong 1 3.3 22:16:03 10° WNW 22:18:18 21° N 22:20:29 10° NE
Cosmos 2263 Rocket 3.5 22:20:31 21° E 22:20:31 21° E 22:23:54 10° NE
Cosmos 1570 Rocket 4.0 22:15:25 10° NNW 22:20:45 88° WSW 22:22:57 36° SSE
MetOp-B 4.3 22:19:33 26° S 22:22:35 67° WSW 22:27:56 10° NNW
Cosmos 1408 Rocket 3.4 22:21:54 38° S 22:23:31 89° E 22:27:50 10° N
Cosmos 1867 4.1 22:22:49 10° SW 22:28:10 59° WNW 22:33:34 10° NNE
Cosmos 1726 2.5 22:25:24 10° N 22:28:46 47° ENE 22:28:46 47° ENE
ATLAS 5 CENTAUR R/B 3.4 22:26:14 10° WSW 22:30:27 34° NW 22:35:00 10° NNE
Atlas Centaur 2 2.8 22:33:29 10° WSW 22:35:01 20° SW 22:35:01 20° SW
Cosmos 2237 Rocket 4.2 22:33:22 10° NW 22:37:17 20° W 22:41:12 10° SW
Cosmos 1908 4.5 22:37:40 10° NNW 22:41:15 36° W 22:42:21 29° SW
SL-08 RB Rocket 4.0 22:40:21 43° SSW 22:41:37 62° W 22:46:10 10° NNW
Cosmos 1500 Rocket 4.0 22:42:58 47° E 22:42:58 47° E 22:47:02 10° NNE
Meteor 2-10 4.4 22:37:30 10° N 22:43:01 58° E 22:44:16 47° SE
Cosmos 1603 3.9 22:37:48 10° NNW 22:43:23 56° ENE 22:44:42 45° ESE
Cosmos 2221 4.4 22:43:13 10° NW 22:46:50 25° W 22:49:07 17° SW
Cosmos 2058 4.1 22:48:12 31° ENE 22:48:12 31° ENE 22:51:06 10° NNE
Cosmos 2016 Rocket 4.1 22:43:02 10° N 22:49:17 74° W 22:51:50 37° S
CARTOSAT-1 3.7 22:52:50 58° ENE 22:52:50 58° ENE 22:57:01 10° N
H-2A R/B 2.3 22:53:13 45° SSW 22:54:44 65° W 23:00:06 10° NNW
Cosmos 2151 3.4 22:58:37 51° NE 22:58:37 51° NE 23:02:12 10° NNE
OAO 1 Rocket 4.3 22:53:17 10° W 22:58:40 83° S 22:59:48 56° E
Cosmos 468 Rocket 3.8 22:53:58 10° NNW 22:59:07 89° E 22:59:45 69° SSE
SPOT 5 4.0 22:58:14 28° SW 22:59:45 35° W 23:04:17 10° NNW
SL-16 R/B 3.5 22:55:23 10° NW 23:00:20 32° WSW 23:02:25 25° SW
Cosmos 1943 3.9 22:56:16 10° N 23:01:33 39° ENE 23:02:27 36° E
H-2A ROCKET BODY 3.1 23:01:43 45° SSE 23:02:17 46° SSE 23:19:44 10° E
ARGOS 4.4 23:02:08 24° SW 23:04:25 33° W 23:09:18 10° NNW
Cosmos 2228 Rocket 3.1 23:02:15 10° N 23:06:52 80° W 23:06:56 79° WSW
Cosmos 1818 4.3 23:02:33 10° NW 23:07:37 41° WSW 23:08:31 38° SW
Lacrosse 5 2.4 23:03:56 10° NNW 23:08:50 48° NE 23:09:28 46° ENE
Cosmos 1328 Rocket 3.8 23:06:44 10° NNW 23:10:56 62° W 23:10:56 62° W
RESURS DK-1 2.7 23:08:54 10° NNW 23:12:27 63° NNW 23:12:27 63° NNW
Cosmos 1515 Rocket 3.6 23:09:10 10° N 23:13:06 72° NNW 23:13:06 72° NNW
H-2A R/B 2.2 23:14:45 69° NNE 23:14:45 69° NNE 23:18:35 10° N
Meteor 1-11 4.2 23:13:31 60° SSW 23:14:39 88° W 23:20:30 10° N
Cosmos 1743 Rocket 4.2 23:14:22 47° W 23:14:42 49° W 23:18:55 10° N
Cosmos 2233 Rocket 3.8 23:09:02 10° N 23:15:15 75° E 23:16:13 63° SE
Cosmos 371 Rocket 3.3 23:17:06 10° NNW 23:21:42 79° NW 23:21:42 79° NW
Cosmos 1151 Rocket 3.4 23:22:00 10° N 23:25:43 63° NNW 23:25:43 63° NNW
Meteor 1-27 4.1 23:26:17 10° N 23:32:07 84° W 23:32:32 77° SSW
CZ-4B R/B 3.5 23:28:39 10° NNE 23:33:56 87° NW 23:33:56 87° NW
CZ-2C R/B 4.0 23:34:08 10° NE 23:37:21 27° ENE 23:37:21 27° ENE
Cosmos 540 Rocket 4.3 23:36:31 10° N 23:40:59 39° ENE 23:40:59 39° ENE
Cosmos 1354 Rocket 4.0 23:42:02 76° N 23:42:02 76° N 23:46:51 10° NNE
CZ-4 R/B 4.4 23:39:58 10° N 23:44:42 52° WNW 23:44:49 51° W
Terra 3.1 23:49:46 33° W 23:49:46 33° W 23:53:46 10° NNW
Meteor 2-12 Rocket 4.5 23:45:31 10° NNW 23:51:31 65° W 23:51:58 63° WSW
SME Rocket 4.2 23:53:19 39° N 23:53:19 39° N 23:56:01 10° NNW
Cosmos 2285 Rocket 4.0 23:45:45 10° NNW 23:52:04 67° ENE 23:52:25 66° E
Cosmos 1626 4.2 23:55:29 25° NW 23:55:29 25° NW 23:57:36 10° NNW
